Regional Weather Roundup
Issued by NWS

Home | Current Version | Previous Version | Text Only | Print | Product List | Glossary Off
Versions: 1 2 3 4 5 6 7 8 9 10 11 12 13 14 15 16 17 18 19 20 21 22 23 24 25 26 27 28 29 30 31 32 33 34 35 36 37 38 39 40 41 42 43 44 45 46 47 48 49 50

000
ASUS43 KLMK 020402
RWRKY
KENTUCKY REGIONAL WEATHER ROUNDUP
NATIONAL WEATHER SERVICE LOUISVILLE KY
1200 AM EDT WED SEP 02 2015

NOTE "FAIR" INDICATES FEW OR NO CLOUDS BELOW 12,000 FEET
WITH NO SIGNIFICANT WEATHER AND/OR OBSTRUCTIONS TO VISIBILITY.

KYZ001>023-026-027-061>063-070>075-020500-
WESTERN AND SOUTH CENTRAL KENTUCKY

CITY           SKY/WX    TMP DP  RH WIND       PRES   REMARKS
PADUCAH        MOCLDY    72  69  90 CALM      30.10R
HENDERSON      CLEAR     72  66  83 CALM      30.09S
OWENSBORO      PTCLDY    75  70  85 CALM      30.11S
HOPKINSVILLE   PTCLDY    74  69  83 N2        30.11R
BOWLING GREEN  CLEAR     73  68  84 CALM      30.12R
GLASGOW        NOT AVBL
$$

KYZ024-025-028>034-038-045-046-053-020500-
NORTH CENTRAL KENTUCKY

CITY           SKY/WX    TMP DP  RH WIND       PRES   REMARKS
LOUISVILLE/SDF PTCLDY    79  69  71 CALM      30.10F
LOUISVILLE/LOU CLEAR     74  71  91 CALM      30.12S
FORT KNOX      CLEAR     68  65  90 CALM      30.11S
$$

KYZ035>037-039>044-047>052-055>060-089>105-020500-
NORTHEAST KENTUCKY

CITY           SKY/WX    TMP DP  RH WIND       PRES   REMARKS
LEXINGTON      CLEAR     73  66  78 CALM      30.14R
COVINGTON      PTCLDY    69  66  90 CALM      30.12S FOG
FRANKFORT      CLEAR     70  66  87 CALM      30.12S
$$

KYZ054-064>069-076>088-106>120-020500-
SOUTHEAST KENTUCKY

CITY           SKY/WX    TMP DP  RH WIND       PRES   REMARKS
JACKSON        PTCLDY    72  64  76 CALM      30.15S
LONDON         CLEAR     71  66  84 CALM      30.15S
SOMERSET       NOT AVBL
MIDDLESBORO    CLEAR     68  68  99 CALM      30.16S
MONTICELLO     CLEAR     67  67 100 CALM      30.16F
$$



USA.gov is the U.S. government's official web portal to all federal, state and local government web resources and services.